When you browse on this site, cookies collect data to enhance your experience and personalize the content and advertising you see.
Visit our Privacy Policy to learn more. By continuing to use the site, you agree to this use of cookies and data.
  • In Hungary
  • List of Countries
  • For 7 days
  • Water Temperature
  • Satellite Maps
  • Weather Map
  • News
  • Weather Widgets
  • user-avatar
    Login

    Hourly Weather Khashuri

    Today, 18 January, Friday

    Time Temperature Precipitation Wind Pressure Humidity
    00:00 -10°C° 0 mm 1 mps 608 mmHg 94%
    01:00 -10°C° 0 mm 1 mps 609 mmHg 93%
    02:00 -10°C° 0 mm 1 mps 609 mmHg 93%
    03:00 -10°C° 0 mm 2 mps 609 mmHg 94%
    04:00 -12°C° 0 mm 2 mps 610 mmHg 93%
    05:00 -10°C° 0 mm 1 mps 610 mmHg 92%
    06:00 -10°C° 0 mm 1 mps 610 mmHg 91%
    07:00 -10°C° 0 mm 1 mps 610 mmHg 90%
    08:00 -9°C° 0 mm 1 mps 611 mmHg 88%
    09:00 -9°C° 0 mm 1 mps 611 mmHg 85%
    10:00 -7°C° 0 mm 1 mps 611 mmHg 84%
    11:00 -6°C° 0 mm 1 mps 611 mmHg 82%
    12:00 -4°C° 0 mm 1 mps 612 mmHg 81%
    13:00 -4°C° 0 mm 1 mps 612 mmHg 81%
    14:00 -4°C° 0 mm 1 mps 612 mmHg 81%
    15:00 -3°C° 0 mm 1 mps 611 mmHg 81%
    16:00 -6°C° 0 mm 1 mps 611 mmHg 83%
    17:00 -8°C° 0 mm 0 mps 611 mmHg 86%
    18:00 -10°C° 0 mm 0 mps 610 mmHg 88%
    19:00 -10°C° 0 mm 1 mps 610 mmHg 86%
    20:00 -10°C° 0 mm 1 mps 610 mmHg 83%
    21:00 -12°C° 0 mm 2 mps 611 mmHg 81%
    22:00 -12°C° 0 mm 2 mps 610 mmHg 80%
    23:00 -13°C° 0 mm 2 mps 610 mmHg 78%

    Tomorrow, 19 January, Saturday

    Time Temperature Precipitation Wind Pressure Humidity
    00:00 -13°C° 0 mm 2 mps 610 mmHg 77%
    01:00 -13°C° 0 mm 2 mps 610 mmHg 76%
    02:00 -13°C° 0 mm 2 mps 610 mmHg 75%
    03:00 -13°C° 0 mm 2 mps 610 mmHg 73%
    04:00 -13°C° 0 mm 2 mps 610 mmHg 72%
    05:00 -13°C° 0 mm 2 mps 610 mmHg 70%
    06:00 -13°C° 0 mm 2 mps 609 mmHg 68%
    07:00 -12°C° 0 mm 2 mps 610 mmHg 67%
    08:00 -12°C° 0 mm 2 mps 610 mmHg 66%
    09:00 -10°C° 0 mm 2 mps 610 mmHg 65%
    10:00 -8°C° 0 mm 2 mps 611 mmHg 65%
    11:00 -6°C° 0 mm 2 mps 611 mmHg 65%
    12:00 -2°C° 0 mm 1 mps 612 mmHg 65%
    13:00 -2°C° 0 mm 1 mps 612 mmHg 66%
    14:00 -2°C° 0 mm 1 mps 612 mmHg 67%
    15:00 -2°C° 0 mm 1 mps 611 mmHg 68%
    16:00 -4°C° 0 mm 1 mps 611 mmHg 70%
    17:00 -6°C° 0 mm 1 mps 611 mmHg 71%
    18:00 -8°C° 0 mm 1 mps 611 mmHg 72%
    19:00 -10°C° 0 mm 2 mps 611 mmHg 71%
    20:00 -10°C° 0 mm 2 mps 611 mmHg 71%
    21:00 -10°C° 0 mm 2 mps 611 mmHg 70%
    22:00 -12°C° 0 mm 2 mps 611 mmHg 68%
    23:00 -12°C° 0 mm 2 mps 611 mmHg 66%

    Day after tomorrow, 20 January, Sunday

    Time Temperature Precipitation Wind Pressure Humidity
    00:00 -12°C° 0 mm 2 mps 611 mmHg 65%
    01:00 -12°C° 0 mm 2 mps 611 mmHg 62%
    02:00 -12°C° 0 mm 2 mps 611 mmHg 60%
    03:00 -12°C° 0 mm 2 mps 611 mmHg 58%
    04:00 -12°C° 0 mm 2 mps 611 mmHg 58%
    05:00 -12°C° 0 mm 2 mps 611 mmHg 57%
    06:00 -10°C° 0 mm 2 mps 611 mmHg 56%
    07:00 -10°C° 0 mm 2 mps 612 mmHg 58%
    08:00 -9°C° 0 mm 2 mps 612 mmHg 60%
    09:00 -8°C° 0 mm 2 mps 613 mmHg 62%
    10:00 -6°C° 0 mm 1 mps 613 mmHg 63%
    11:00 -3°C° 0 mm 1 mps 613 mmHg 64%
    12:00 -2°C° 0 mm 1 mps 614 mmHg 64%
    13:00 -2°C° 0 mm 1 mps 614 mmHg 67%
    14:00 -2°C° 0 mm 1 mps 613 mmHg 69%
    15:00 -2°C° 0 mm 0 mps 613 mmHg 71%
    16:00 -3°C° 0 mm 1 mps 613 mmHg 72%
    17:00 -6°C° 0 mm 1 mps 612 mmHg 73%
    18:00 -7°C° 0 mm 1 mps 612 mmHg 74%
    19:00 -9°C° 0 mm 2 mps 612 mmHg 72%
    20:00 -10°C° 0 mm 2 mps 612 mmHg 71%
    21:00 -10°C° 0 mm 2 mps 612 mmHg 70%
    22:00 -10°C° 0 mm 2 mps 612 mmHg 68%
    23:00 -12°C° 0 mm 2 mps 612 mmHg 66%

    21 January, Monday

    Time Temperature Precipitation Wind Pressure Humidity
    00:00 -12°C° 0 mm 2 mps 612 mmHg 64%
    01:00 -12°C° 0 mm 2 mps 612 mmHg 63%
    02:00 -12°C° 0 mm 2 mps 612 mmHg 62%
    03:00 -13°C° 0 mm 2 mps 611 mmHg 61%
    04:00 -13°C° 0 mm 2 mps 611 mmHg 61%
    05:00 -13°C° 0 mm 2 mps 611 mmHg 61%
    06:00 -13°C° 0 mm 2 mps 611 mmHg 61%
    07:00 -12°C° 0 mm 2 mps 611 mmHg 62%
    08:00 -12°C° 0 mm 2 mps 611 mmHg 63%
    09:00 -10°C° 0 mm 2 mps 612 mmHg 64%
    10:00 -8°C° 0 mm 2 mps 612 mmHg 64%
    11:00 -6°C° 0 mm 2 mps 612 mmHg 64%
    12:00 -4°C° 0 mm 2 mps 612 mmHg 63%
    13:00 -4°C° 0 mm 2 mps 612 mmHg 65%
    14:00 -4°C° 0 mm 2 mps 611 mmHg 66%
    15:00 -4°C° 0 mm 2 mps 611 mmHg 68%
    16:00 -6°C° 0 mm 2 mps 610 mmHg 67%
    17:00 -8°C° 0 mm 2 mps 610 mmHg 67%
    18:00 -10°C° 0 mm 2 mps 609 mmHg 66%
    19:00 -10°C° 0 mm 2 mps 609 mmHg 65%
    20:00 -12°C° 0 mm 2 mps 609 mmHg 64%
    21:00 -12°C° 0 mm 2 mps 610 mmHg 63%
    22:00 -12°C° 0 mm 2 mps 610 mmHg 63%
    23:00 -12°C° 0 mm 2 mps 609 mmHg 63%

    22 January, Tuesday

    Time Temperature Precipitation Wind Pressure Humidity
    00:00 -12°C° 0 mm 2 mps 609 mmHg 63%
    01:00 -12°C° 0 mm 2 mps 609 mmHg 63%
    02:00 -12°C° 0 mm 2 mps 609 mmHg 63%
    03:00 -12°C° 0 mm 2 mps 609 mmHg 63%
    04:00 -12°C° 0 mm 2 mps 609 mmHg 64%
    05:00 -12°C° 0 mm 2 mps 609 mmHg 65%
    06:00 -12°C° 0 mm 2 mps 609 mmHg 66%
    07:00 -12°C° 0 mm 2 mps 609 mmHg 68%
    08:00 -10°C° 0 mm 2 mps 610 mmHg 69%
    09:00 -9°C° 0 mm 2 mps 610 mmHg 71%
    10:00 -7°C° 0 mm 2 mps 610 mmHg 71%
    11:00 -6°C° 0 mm 2 mps 611 mmHg 72%
    12:00 -2°C° 0 mm 1 mps 611 mmHg 72%
    13:00 -2°C° 0 mm 1 mps 611 mmHg 75%
    14:00 -2°C° 0 mm 1 mps 611 mmHg 77%
    15:00 -2°C° 0 mm 1 mps 610 mmHg 79%
    16:00 -3°C° 0 mm 1 mps 610 mmHg 82%
    17:00 -4°C° 0 mm 1 mps 610 mmHg 85%
    18:00 -6°C° 0 mm 1 mps 610 mmHg 88%
    19:00 -7°C° 0 mm 1 mps 610 mmHg 87%
    20:00 -8°C° 0 mm 2 mps 610 mmHg 86%
    21:00 -9°C° 0 mm 2 mps 610 mmHg 84%
    22:00 -9°C° 0 mm 2 mps 610 mmHg 83%
    23:00 -9°C° 0 mm 2 mps 609 mmHg 81%

    23 January, Wednesday

    Time Temperature Precipitation Wind Pressure Humidity
    00:00 -10°C° 0 mm 2 mps 609 mmHg 80%
    01:00 -10°C° 0 mm 2 mps 609 mmHg 78%
    02:00 -10°C° 0 mm 2 mps 609 mmHg 77%
    03:00 -10°C° 0 mm 2 mps 609 mmHg 76%
    04:00 -10°C° 0 mm 2 mps 609 mmHg 75%
    05:00 -10°C° 0 mm 2 mps 608 mmHg 74%
    06:00 -12°C° 0 mm 2 mps 608 mmHg 73%
    07:00 -10°C° 0 mm 2 mps 609 mmHg 73%
    08:00 -10°C° 0 mm 2 mps 609 mmHg 72%
    09:00 -9°C° 0 mm 2 mps 609 mmHg 72%
    10:00 -7°C° 0 mm 2 mps 610 mmHg 71%
    11:00 -6°C° 0 mm 2 mps 610 mmHg 69%
    12:00 -4°C° 0 mm 2 mps 610 mmHg 68%
    13:00 -4°C° 0 mm 2 mps 610 mmHg 69%
    14:00 -4°C° 0 mm 2 mps 610 mmHg 70%
    15:00 -4°C° 0 mm 2 mps 610 mmHg 71%
    16:00 -6°C° 0 mm 2 mps 609 mmHg 72%
    17:00 -7°C° 0 mm 2 mps 609 mmHg 73%
    18:00 -9°C° 0 mm 2 mps 609 mmHg 74%
    19:00 -9°C° 0 mm 2 mps 609 mmHg 73%
    20:00 -12°C° 0 mm 3 mps 609 mmHg 73%
    21:00 -12°C° 0 mm 3 mps 609 mmHg 72%
    22:00 -12°C° 0 mm 3 mps 609 mmHg 73%
    23:00 -12°C° 0 mm 3 mps 609 mmHg 73%
    Show more